User: anonymous   Login
Location: ??????
(55.6500°N, 37.8000°E)
Time: 18:23:32
(UTC+00:00)
Language:

Cosmos 1371 Rocket - Orbit

View from above orbital plane
View from above orbital plane
View from above satellite
View from above satellite

Ground track
Ground track

The orbit data is extracted from the following two-line orbital elements,

1 13242U 82051B   24165.89287017  .00000310  00000-0  11387-3 0  9995
2 13242  74.0440 346.3890 0025456 279.4306  80.3970 14.36670348199928
Epoch (UTC): 13 June 2024 21:25:43
Eccentricity: 0.0025456
inclination: 74.0440°
perigee height: 751 km
apogee height: 788 km
right ascension of ascending node: 346.3890°
argument of perigee: 279.4306°
revolutions per day: 14.36670348
mean anomaly at epoch: 80.3970°
orbit number at epoch: 19992

The dashed part of the orbit path shows where the satellite is in the earth's shadow,  

DLR